GW1106 Weather Reports


Display with metric or nautical units.
time (UTC)temp
F
wind
direction
speed
MPH
gust
MPH
rain 1hr
in
rain 24hr
in
rain mn
in
humidity
%
barometer
mb
20260505003517 68 157 0.0 1.0 0.00 0.00 0.00 46 1015.7
20260505003014 68 172 0.0 2.0 0.00 0.00 0.00 45 1015.7
20260505002509 69 211 1.0 3.0 0.00 0.00 0.00 44 1015.5
20260505002008 69 157 0.0 3.0 0.00 0.00 0.00 44 1015.6
20260505001505 69 165 0.0 2.0 0.00 0.00 0.00 43 1015.6
20260505001002 69 165 0.0 1.0 0.00 0.00 0.00 43 1015.6
20260505000500 70 189 0.0 2.0 0.00 0.00 0.00 43 1015.5
20260504235956 71 149 1.0 1.0 0.00 0.00 0.00 42 1015.2
20260504235453 71 162 1.0 3.0 0.00 0.00 0.00 41 1015.6
20260504234950 71 199 2.0 3.0 0.00 0.00 0.00 40 1015.2
20260504234447 72 187 2.0 4.0 0.00 0.00 0.00 41 1015.2
20260504233943 72 221 2.0 3.0 0.00 0.00 0.00 39 1015.2
20260504233439 72 209 5.0 6.0 0.00 0.00 0.00 39 1015.0
20260504232937 72 193 1.0 3.0 0.00 0.00 0.00 40 1015.1
20260504232434 72 189 2.0 4.0 0.00 0.00 0.00 39 1015.1
20260504231931 73 208 3.0 7.0 0.00 0.00 0.00 39 1015.1
20260504231427 73 232 6.0 7.0 0.00 0.00 0.00 38 1015.0
20260504230923 73 215 3.0 7.0 0.00 0.00 0.00 37 1015.2
20260504230420 74 218 2.0 6.0 0.00 0.00 0.00 37 1015.0
20260504225919 74 217 4.0 6.0 0.00 0.00 0.00 37 1015.0
20260504225416 74 230 3.0 7.0 0.00 0.00 0.00 36 1014.9
20260504224913 74 184 4.0 10.0 0.00 0.00 0.00 36 1014.9
20260504224409 75 230 5.0 6.0 0.00 0.00 0.00 37 1014.9
20260504223907 75 206 7.0 8.0 0.00 0.00 0.00 34 1015.2
20260504223402 75 250 9.0 11.0 0.00 0.00 0.00 35 1015.1
20260504222858 75 232 2.0 4.0 0.00 0.00 0.00 36 1015.1
20260504222355 75 226 6.0 8.0 0.00 0.00 0.00 34 1015.1
20260504221854 75 212 3.0 9.0 0.00 0.00 0.00 34 1015.0
20260504221350 75 214 3.0 8.0 0.00 0.00 0.00 36 1015.1
20260504220847 75 187 3.0 6.0 0.00 0.00 0.00 35 1015.2
20260504220344 75 223 3.0 7.0 0.00 0.00 0.00 34 1014.9
20260504215841 75 216 2.0 11.0 0.00 0.00 0.00 34 1015.0
20260504215337 75 219 2.0 6.0 0.00 0.00 0.00 35 1014.9
20260504214834 75 220 5.0 10.0 0.00 0.00 0.00 35 1015.2
20260504214331 75 220 5.0 6.0 0.00 0.00 0.00 36 1014.9
20260504213827 75 249 6.0 10.0 0.00 0.00 0.00 35 1015.0
20260504213323 75 244 5.0 6.0 0.00 0.00 0.00 35 1014.9
20260504212821 76 195 7.0 10.0 0.00 0.00 0.00 34 1015.1
20260504212317 76 179 5.0 10.0 0.00 0.00 0.00 35 1015.1
20260504211815 76 224 4.0 9.0 0.00 0.00 0.00 36 1015.2
20260504211310 76 232 3.0 8.0 0.00 0.00 0.00 36 1015.1
20260504210808 77 228 6.0 9.0 0.00 0.00 0.00 35 1015.1
20260504210305 78 236 2.0 4.0 0.00 0.00 0.00 33 1015.0
20260504205803 77 264 10.0 11.0 0.00 0.00 0.00 35 1015.1
20260504205300 76 176 4.0 8.0 0.00 0.00 0.00 34 1015.2
20260504204758 77 198 7.0 9.0 0.00 0.00 0.00 33 1015.0
20260504204251 78 241 6.0 10.0 0.00 0.00 0.00 33 1015.2
20260504203750 77 256 8.0 13.0 0.00 0.00 0.00 33 1015.2
20260504203246 78 191 4.0 4.0 0.00 0.00 0.00 32 1015.2
20260504202746 78 192 4.0 8.0 0.00 0.00 0.00 33 1015.3
20260504202244 77 184 6.0 11.0 0.00 0.00 0.00 32 1015.6
20260504201741 78 163 6.0 10.0 0.00 0.00 0.00 34 1015.6
20260504201238 77 172 4.0 9.0 0.00 0.00 0.00 33 1015.5
20260504200736 77 197 6.0 9.0 0.00 0.00 0.00 34 1015.5
20260504200231 77 223 3.0 8.0 0.00 0.00 0.00 36 1015.8
20260504195728 77 241 4.0 8.0 0.00 0.00 0.00 35 1015.7
20260504195224 77 270 2.0 6.0 0.00 0.00 0.00 35 1015.7
20260504194721 79 217 8.0 8.0 0.00 0.00 0.00 31 1015.9
20260504194217 77 182 3.0 3.0 0.00 0.00 0.00 33 1015.9
20260504193714 76 197 7.0 10.0 0.00 0.00 0.00 32 1016.1
20260504193212 77 233 5.0 8.0 0.00 0.00 0.00 33 1016.0
20260504192710 78 175 3.0 6.0 0.00 0.00 0.00 32 1016.1
20260504192208 76 199 2.0 4.0 0.00 0.00 0.00 33 1016.2
20260504191706 76 143 5.0 8.0 0.00 0.00 0.00 35 1016.4
20260504191202 76 171 5.0 9.0 0.00 0.00 0.00 33 1016.4
20260504190657 76 99 2.0 4.0 0.00 0.00 0.00 33 1016.3
20260504190154 76 216 4.0 10.0 0.00 0.00 0.00 33 1016.4
20260504185651 76 197 4.0 7.0 0.00 0.00 0.00 32 1016.5
20260504185148 76 162 2.0 4.0 0.00 0.00 0.00 33 1016.5
20260504184644 75 223 4.0 8.0 0.00 0.00 0.00 34 1016.5
20260504184138 75 215 8.0 9.0 0.00 0.00 0.00 34 1016.5
20260504183636 75 295 6.0 8.0 0.00 0.00 0.00 34 1016.6
20260504183133 76 162 6.0 8.0 0.00 0.00 0.00 34 1016.7
20260504182631 75 247 2.0 8.0 0.00 0.00 0.00 36 1016.8
20260504182128 75 167 3.0 8.0 0.00 0.00 0.00 37 1016.8
20260504181626 74 176 0.0 3.0 0.00 0.00 0.00 33 1016.9
20260504181123 75 112 2.0 6.0 0.00 0.00 0.00 34 1017.0
20260504180622 74 218 4.0 8.0 0.00 0.00 0.00 36 1016.9
20260504180121 74 236 5.0 8.0 0.00 0.00 0.00 34 1016.9
20260504175617 75 157 3.0 6.0 0.00 0.00 0.00 31 1017.1
20260504175114 74 199 2.0 2.0 0.00 0.00 0.00 33 1017.0
20260504174612 75 212 2.0 8.0 0.00 0.00 0.00 33 1017.1
20260504174108 76 107 1.0 2.0 0.00 0.00 0.00 34 1017.1
20260504173605 74 162 0.0 1.0 0.00 0.00 0.00 31 1017.2
20260504173103 73 150 4.0 6.0 0.00 0.00 0.00 32 1017.4
20260504172559 74 198 3.0 9.0 0.00 0.00 0.00 33 1017.2
20260504172056 73 33 3.0 4.0 0.00 0.00 0.00 31 1017.3
20260504171552 73 325 2.0 4.0 0.00 0.00 0.00 33 1017.3
20260504171049 74 110 2.0 2.0 0.00 0.00 0.00 32 1017.4
20260504170545 74 66 1.0 2.0 0.00 0.00 0.00 32 1017.7
20260504150929 68 174 2.0 4.0 0.00 0.00 0.00 41 1019.1
20260504150426 66 229 3.0 4.0 0.00 0.00 0.00 41 1019.2
20260504140852 62 209 2.0 3.0 0.00 0.00 0.00 56 1019.1
20260504140348 62 172 1.0 2.0 0.00 0.00 0.00 56 1019.0
20260504130817 56 322 1.0 2.0 0.00 0.00 0.00 67 1019.1
20260504130313 55 215 0.0 3.0 0.00 0.00 0.00 71 1018.8
20260504120237 44 134 0.0 0.0 0.00 0.00 0.00 98 1018.6
20260504110704 38 142 0.0 0.0 0.00 0.00 0.00 99 1018.5
20260504110200 37 136 0.0 0.0 0.00 0.00 0.00 99 1018.6
20260504100125 37 68 0.0 0.0 0.00 0.00 0.00 98 1018.2
20260504081518 39 159 0.0 0.0 0.00 0.00 0.00 97 1018.1
20260504081013 40 171 0.0 0.0 0.00 0.00 0.00 96 1017.9
20260504080510 39 139 0.0 0.0 0.00 0.00 0.00 97 1017.8
20260504050322 44 117 0.0 1.0 0.00 0.00 0.00 92 1018.5
20260504045820 43 119 0.0 0.0 0.00 0.00 0.00 92 1018.4
20260504045319 43 105 0.0 1.0 0.00 0.00 0.00 91 1018.4
20260504044817 43 105 0.0 0.0 0.00 0.00 0.00 91 1018.1
20260504044314 44 123 0.0 1.0 0.00 0.00 0.00 90 1018.2
20260504043812 44 125 0.0 0.0 0.00 0.00 0.00 89 1018.1
20260504043308 44 124 0.0 2.0 0.00 0.00 0.00 89 1018.1
20260504042806 44 116 0.0 0.0 0.00 0.00 0.00 89 1018.1
20260504042304 45 118 0.0 2.0 0.00 0.00 0.00 88 1018.0
20260504041758 45 128 1.0 1.0 0.00 0.00 0.00 88 1018.1
20260504041255 44 126 1.0 1.0 0.00 0.00 0.00 89 1018.1
20260504040751 44 96 2.0 2.0 0.00 0.00 0.00 89 1018.2
20260504040248 45 64 0.0 0.0 0.00 0.00 0.00 88 1018.4
20260504035744 45 125 0.0 0.0 0.00 0.00 0.00 87 1018.4
20260504035242 47 128 0.0 0.0 0.00 0.00 0.00 84 1018.3
20260504034739 47 148 0.0 1.0 0.00 0.00 0.00 84 1018.3
20260504034236 47 130 0.0 0.0 0.00 0.00 0.00 84 1018.4
20260504033734 47 113 0.0 0.0 0.00 0.00 0.00 83 1018.6
20260504033231 48 132 0.0 0.0 0.00 0.00 0.00 81 1018.5
20260504032728 49 136 0.0 0.0 0.00 0.00 0.00 79 1018.6
20260504032225 48 135 1.0 2.0 0.00 0.00 0.00 80 1018.6
20260504031721 48 100 1.0 1.0 0.00 0.00 0.00 80 1018.7
20260504031219 48 130 0.0 0.0 0.00 0.00 0.00 79 1018.6
20260504030715 47 132 0.0 0.0 0.00 0.00 0.00 83 1018.6
20260504030212 47 128 0.0 0.0 0.00 0.00 0.00 86 1018.5
20260504025709 47 124 0.0 0.0 0.00 0.00 0.00 85 1018.6
20260504025205 47 121 0.0 0.0 0.00 0.00 0.00 84 1018.6
20260504024703 47 123 0.0 0.0 0.00 0.00 0.00 83 1018.6
20260504024159 48 126 0.0 0.0 0.00 0.00 0.00 82 1018.4
20260504023656 48 127 0.0 0.0 0.00 0.00 0.00 80 1018.4
20260504023152 48 123 0.0 0.0 0.00 0.00 0.00 82 1018.2
20260504022648 48 100 0.0 0.0 0.00 0.00 0.00 81 1018.3
20260504022144 49 105 0.0 0.0 0.00 0.00 0.00 79 1018.1
20260504021642 49 127 0.0 0.0 0.00 0.00 0.00 79 1018.1
20260504021138 50 99 0.0 0.0 0.00 0.00 0.00 79 1018.2
20260504020636 50 87 0.0 0.0 0.00 0.00 0.00 78 1018.1
20260504020131 50 102 1.0 1.0 0.00 0.00 0.00 78 1017.9
20260504015628 51 131 0.0 0.0 0.00 0.00 0.00 76 1017.9
20260504015125 51 126 0.0 0.0 0.00 0.00 0.00 75 1017.8
20260504014621 51 117 0.0 0.0 0.00 0.00 0.00 74 1017.6
20260504014118 51 123 0.0 0.0 0.00 0.00 0.00 72 1017.7
20260504013615 52 134 0.0 0.0 0.00 0.00 0.00 71 1017.6
20260504013112 52 132 0.0 0.0 0.00 0.00 0.00 72 1017.7
20260504012609 52 128 0.0 0.0 0.00 0.00 0.00 71 1017.5
20260504012107 52 137 0.0 0.0 0.00 0.00 0.00 70 1017.5
20260504011604 53 138 0.0 0.0 0.00 0.00 0.00 67 1017.8
20260504011100 54 137 0.0 0.0 0.00 0.00 0.00 67 1017.2
20260504010556 55 128 0.0 0.0 0.00 0.00 0.00 66 1017.4
20260504010052 55 134 0.0 0.0 0.00 0.00 0.00 63 1017.3
20260504005549 56 124 0.0 0.0 0.00 0.00 0.00 62 1017.0
20260504005046 57 109 0.0 0.0 0.00 0.00 0.00 60 1017.3
20260504004544 59 122 0.0 0.0 0.00 0.00 0.00 58 1017.3
20260504004041 61 138 0.0 0.0 0.00 0.00 0.00 53 1017.1